Location: Little Suamico
(44.7175°N, 88.0093°W)
Time: 20:31:54
(UTC+00:00)

X-37B - Pass Details

Date: 25 April 2021
Orbit: 386 x 389 km, 45.0° (Epoch: 08 May)

Event Time Altitude Azimuth Distance (km) Brightness Sun altitude
Exits shadow 09:03:33 51° 271° (W) 492 0.7 -17.3°
Maximum altitude 09:04:14 83° 191° (S) 394 0.4 -17.2°
Drops below altitude 10° 09:07:25 10° 103° (ESE) 1,412 3.9 -16.8°
Sets 09:09:29 0° 102° (ESE) 2,265 5.0 -16.5°
